{"data":{"norad_id":68031,"epoch":"2026-05-25T02:17:31.979328Z","epoch_age_seconds":63818,"freshness":"FRESH","line1":"1 68031U 26040S   26145.09550902  .00020730  00000+0  64249-3 0  9997","line2":"2 68031  97.2841  94.1263 0001439  97.3332 262.8074 15.33454196 13172","mean_motion":15.33454196,"eccentricity":0.0001439,"inclination_deg":97.2841,"raan_deg":94.1263,"arg_perigee_deg":97.3332,"mean_anomaly_deg":262.8074,"bstar":0.00064249,"rev_number":1317,"period_min":93.905641508969,"perigee_km":464.5310121489,"apogee_km":466.50061542871,"semimajor_km":6843.6528137888,"source":"CELESTRAK","updated_at":"2026-05-25T13:38:21.807623Z"}}